timestamp,wind_dir_avg,wind_spd_avg,wind_spd_max_dir,wind_spd_gust,battery_voltage,lat,long
2023-06-24 00:04:00+00:00,208.0,9.27,218.0,10.66,12.89,47.59359,-54.27349
2023-06-24 00:14:01+00:00,207.0,9.02,219.0,11.47,12.49,47.59359,-54.27349
2023-06-24 00:24:01+00:00,204.0,8.43,198.0,10.67,12.49,47.59359,-54.27349
2023-06-24 00:34:01+00:00,209.0,9.62,209.0,11.18,12.49,47.59359,-54.27349
2023-06-24 00:44:01+00:00,211.0,9.9,216.0,11.65,12.49,47.59359,-54.27349
2023-06-24 00:54:01+00:00,217.0,11.11,221.0,12.77,12.49,47.59359,-54.27349
2023-06-24 01:04:01+00:00,213.0,11.1,217.0,12.53,12.49,47.59359,-54.27349
2023-06-24 01:14:00+00:00,210.0,10.08,211.0,11.54,12.41,47.59359,-54.27349
2023-06-24 01:24:00+00:00,212.0,9.57,215.0,10.88,12.41,47.59359,-54.27349
2023-06-24 01:34:00+00:00,210.0,9.6,213.0,10.62,12.41,47.59359,-54.27349
2023-06-24 01:44:00+00:00,215.0,11.14,217.0,12.48,12.41,47.59359,-54.27349
2023-06-24 01:54:00+00:00,212.0,10.85,217.0,11.8,12.41,47.59359,-54.27349
2023-06-24 02:04:00+00:00,212.0,11.58,212.0,12.79,12.41,47.59359,-54.27349
2023-06-24 02:14:00+00:00,211.0,10.81,212.0,12.18,12.41,47.59359,-54.27349
2023-06-24 02:24:00+00:00,212.0,10.65,213.0,12.24,12.41,47.59359,-54.27349
2023-06-24 02:34:00+00:00,210.0,9.88,207.0,10.89,12.41,47.59359,-54.27349
2023-06-24 02:44:00+00:00,211.0,9.86,210.0,10.83,12.41,47.59359,-54.27349
2023-06-24 02:54:00+00:00,209.0,9.4,211.0,10.0,12.41,47.59359,-54.27349
2023-06-24 03:04:00+00:00,208.0,8.96,210.0,9.78,12.41,47.59359,-54.27349
2023-06-24 03:14:00+00:00,208.0,8.6,207.0,9.49,12.41,47.59359,-54.27349
2023-06-24 03:24:00+00:00,207.0,8.96,206.0,9.73,12.41,47.59359,-54.27349
2023-06-24 03:34:00+00:00,206.0,9.01,205.0,9.61,12.41,47.59359,-54.27349
2023-06-24 03:44:00+00:00,211.0,7.54,207.0,8.3,12.41,47.59359,-54.27349
2023-06-24 03:54:00+00:00,208.0,7.47,210.0,8.28,12.41,47.59359,-54.27349
2023-06-24 04:04:00+00:00,208.0,7.92,206.0,8.79,12.41,47.59359,-54.27349
2023-06-24 04:14:00+00:00,211.0,7.46,209.0,8.18,12.41,47.59359,-54.27349
2023-06-24 04:24:00+00:00,212.0,7.13,212.0,7.59,12.41,47.59359,-54.27349
2023-06-24 04:34:00+00:00,208.0,7.46,210.0,8.07,12.41,47.59359,-54.27349
2023-06-24 04:44:00+00:00,208.0,7.37,205.0,8.05,12.41,47.59359,-54.27349
2023-06-24 04:54:00+00:00,212.0,7.27,212.0,8.29,12.41,47.59359,-54.27349
2023-06-24 05:04:00+00:00,214.0,7.64,213.0,8.59,12.41,47.59359,-54.27349
2023-06-24 05:14:00+00:00,211.0,7.9,211.0,8.86,12.33,47.59359,-54.27349
2023-06-24 05:24:00+00:00,211.0,7.14,212.0,7.8,12.33,47.59359,-54.27349
2023-06-24 05:34:00+00:00,213.0,6.63,215.0,7.28,12.33,47.59359,-54.27349
2023-06-24 05:44:00+00:00,214.0,6.4,214.0,7.07,12.33,47.59359,-54.27349
2023-06-24 05:54:00+00:00,214.0,7.12,215.0,8.0,12.33,47.59359,-54.27349
2023-06-24 06:04:00+00:00,215.0,6.0,212.0,6.57,12.33,47.59359,-54.27349
2023-06-24 06:14:00+00:00,217.0,6.24,217.0,6.92,12.33,47.59359,-54.27349
2023-06-24 06:24:00+00:00,215.0,6.15,212.0,7.22,12.33,47.59359,-54.27349
2023-06-24 06:34:00+00:00,215.0,7.31,215.0,8.19,12.33,47.59359,-54.27349
2023-06-24 06:44:00+00:00,214.0,7.5,213.0,8.46,12.33,47.59359,-54.27349
2023-06-24 06:54:00+00:00,214.0,6.84,213.0,7.72,12.33,47.59359,-54.27349
2023-06-24 07:04:00+00:00,216.0,6.47,212.0,7.16,12.33,47.59359,-54.27349
2023-06-24 07:14:01+00:00,214.0,7.8,214.0,9.18,12.33,47.59359,-54.27349
2023-06-24 07:24:01+00:00,214.0,7.83,213.0,8.78,12.33,47.59359,-54.27349
2023-06-24 07:34:01+00:00,214.0,8.21,211.0,9.15,12.33,47.59359,-54.27349
2023-06-24 07:44:01+00:00,219.0,6.59,223.0,7.45,12.33,47.59359,-54.27349
2023-06-24 07:54:01+00:00,215.0,6.02,213.0,6.52,12.33,47.59359,-54.27349
2023-06-24 08:04:01+00:00,209.0,7.59,207.0,8.29,12.33,47.59359,-54.27349
2023-06-24 08:14:01+00:00,212.0,7.73,211.0,8.51,12.25,47.59359,-54.27349
2023-06-24 08:24:01+00:00,212.0,6.92,213.0,7.4,12.25,47.59359,-54.27349
2023-06-24 08:34:01+00:00,214.0,6.42,210.0,7.33,12.25,47.59359,-54.27349
2023-06-24 08:44:01+00:00,217.0,5.83,221.0,6.7,12.25,47.59359,-54.27349
2023-06-24 08:54:01+00:00,219.0,6.9,215.0,7.71,12.25,47.59359,-54.27349
2023-06-24 09:04:01+00:00,213.0,6.92,211.0,7.62,12.25,47.59359,-54.27349
2023-06-24 09:14:00+00:00,210.0,6.91,208.0,7.36,12.57,47.59359,-54.27349
2023-06-24 09:24:00+00:00,221.0,6.36,221.0,6.99,12.57,47.59359,-54.27349
2023-06-24 09:34:00+00:00,221.0,5.32,225.0,5.98,12.57,47.59359,-54.27349
2023-06-24 09:44:00+00:00,212.0,5.37,213.0,6.21,12.57,47.59359,-54.27349
2023-06-24 09:54:00+00:00,208.0,6.32,207.0,6.98,12.57,47.59359,-54.27349
2023-06-24 10:04:00+00:00,215.0,4.36,210.0,5.1,12.57,47.59359,-54.27349
2023-06-24 10:14:00+00:00,216.0,5.31,218.0,5.83,13.53,47.59359,-54.27349
2023-06-24 10:24:00+00:00,215.0,5.94,214.0,6.52,13.53,47.59359,-54.27349
2023-06-24 10:34:00+00:00,215.0,5.26,218.0,5.88,13.53,47.59359,-54.27349
2023-06-24 10:44:00+00:00,221.0,3.78,224.0,4.41,13.53,47.59359,-54.27349
2023-06-24 10:54:00+00:00,190.0,4.59,191.0,5.13,13.53,47.59359,-54.27349
2023-06-24 11:04:00+00:00,205.0,6.84,211.0,7.53,13.53,47.59359,-54.27349
2023-06-24 11:14:01+00:00,211.0,6.88,211.0,7.59,13.6,47.59359,-54.27349
2023-06-24 11:24:01+00:00,207.0,6.97,208.0,7.85,13.6,47.59359,-54.27349
2023-06-24 11:34:01+00:00,211.0,6.69,212.0,7.35,13.6,47.59359,-54.27349
2023-06-24 11:44:01+00:00,213.0,7.42,211.0,8.15,13.6,47.59359,-54.27349
2023-06-24 11:54:01+00:00,208.0,7.95,212.0,8.46,13.6,47.59359,-54.27349
2023-06-24 12:04:01+00:00,208.0,6.72,210.0,7.75,13.6,47.59359,-54.27349
2023-06-24 12:14:00+00:00,213.0,6.75,213.0,7.44,13.84,47.59359,-54.27349
2023-06-24 12:24:00+00:00,215.0,6.15,214.0,6.66,13.84,47.59359,-54.27349
2023-06-24 12:34:00+00:00,211.0,7.28,213.0,8.04,13.84,47.59359,-54.27349
2023-06-24 12:44:00+00:00,206.0,6.84,206.0,7.71,13.84,47.59359,-54.27349
2023-06-24 12:54:00+00:00,207.0,8.14,209.0,8.93,13.84,47.59359,-54.27349
2023-06-24 13:04:00+00:00,213.0,8.22,213.0,9.47,13.84,47.59359,-54.27349
2023-06-24 13:14:00+00:00,220.0,9.47,219.0,10.43,14.4,47.59359,-54.27349
2023-06-24 13:24:00+00:00,223.0,10.0,225.0,10.7,14.4,47.59359,-54.27349
2023-06-24 13:34:00+00:00,216.0,8.95,217.0,9.57,14.4,47.59359,-54.27349
2023-06-24 13:44:00+00:00,213.0,7.99,212.0,8.85,14.4,47.59359,-54.27349
2023-06-24 13:54:00+00:00,206.0,8.02,207.0,8.56,14.4,47.59359,-54.27349
2023-06-24 14:04:00+00:00,206.0,9.17,209.0,9.97,14.4,47.59359,-54.27349
2023-06-24 14:14:00+00:00,205.0,9.62,205.0,10.87,14.32,47.59359,-54.27349
2023-06-24 14:24:00+00:00,202.0,10.64,201.0,11.69,14.32,47.59359,-54.27349
2023-06-24 14:34:00+00:00,202.0,9.97,206.0,11.01,14.32,47.59359,-54.27349
2023-06-24 14:44:00+00:00,202.0,9.03,202.0,10.34,14.32,47.59359,-54.27349
2023-06-24 14:54:00+00:00,204.0,9.09,206.0,10.02,14.32,47.59359,-54.27349
2023-06-24 15:04:00+00:00,206.0,8.8,210.0,9.36,14.32,47.59359,-54.27349
2023-06-24 15:14:00+00:00,207.0,7.62,209.0,8.26,14.4,47.59359,-54.27349
2023-06-24 15:24:00+00:00,204.0,7.43,216.0,8.57,14.4,47.59359,-54.27349
2023-06-24 15:34:00+00:00,209.0,9.2,212.0,10.5,14.4,47.59359,-54.27349
2023-06-24 15:44:00+00:00,200.0,9.68,199.0,10.55,14.4,47.59359,-54.27349
2023-06-24 15:54:00+00:00,202.0,9.02,204.0,10.32,14.4,47.59359,-54.27349
2023-06-24 16:04:00+00:00,204.0,9.84,206.0,10.94,14.4,47.59359,-54.27349
2023-06-24 16:14:00+00:00,207.0,10.55,209.0,11.49,14.4,47.59359,-54.27349
2023-06-24 16:24:00+00:00,203.0,10.76,208.0,11.95,14.4,47.59359,-54.27349
2023-06-24 16:34:00+00:00,208.0,11.02,210.0,12.1,14.4,47.59359,-54.27349
2023-06-24 16:44:00+00:00,206.0,10.84,203.0,12.25,14.4,47.59359,-54.27349
2023-06-24 16:54:00+00:00,207.0,10.26,207.0,11.81,14.4,47.59359,-54.27349
2023-06-24 17:04:00+00:00,210.0,10.06,212.0,11.23,14.4,47.59359,-54.27349
2023-06-24 17:14:00+00:00,203.0,10.32,203.0,11.17,14.24,47.59359,-54.27349
2023-06-24 17:24:00+00:00,202.0,10.71,203.0,12.09,14.24,47.59359,-54.27349
2023-06-24 17:34:00+00:00,203.0,11.58,202.0,12.16,14.24,47.59359,-54.27349
2023-06-24 17:44:00+00:00,205.0,10.74,202.0,12.08,14.24,47.59359,-54.27349
2023-06-24 17:54:00+00:00,202.0,10.5,200.0,11.6,14.24,47.59359,-54.27349
2023-06-24 18:04:00+00:00,201.0,10.31,211.0,11.11,14.24,47.59359,-54.27349
2023-06-24 18:14:00+00:00,206.0,10.23,207.0,11.27,13.92,47.59359,-54.27349
2023-06-24 18:24:00+00:00,206.0,9.12,208.0,10.2,13.92,47.59359,-54.27349
2023-06-24 18:34:00+00:00,207.0,9.43,204.0,10.44,13.92,47.59359,-54.27349
2023-06-24 18:44:00+00:00,205.0,9.07,205.0,10.32,13.92,47.59359,-54.27349
2023-06-24 18:54:00+00:00,205.0,9.0,205.0,9.79,13.92,47.59359,-54.27349
2023-06-24 19:04:00+00:00,200.0,10.32,201.0,11.07,13.92,47.59359,-54.27349
2023-06-24 19:14:01+00:00,204.0,10.21,202.0,11.36,13.6,47.59359,-54.27349
2023-06-24 19:24:01+00:00,198.0,10.7,198.0,11.55,13.6,47.59359,-54.27349
2023-06-24 19:34:01+00:00,199.0,9.54,201.0,10.39,13.6,47.59359,-54.27349
2023-06-24 19:44:01+00:00,201.0,9.36,203.0,10.46,13.6,47.59359,-54.27349
2023-06-24 19:54:01+00:00,203.0,10.25,204.0,11.23,13.6,47.59359,-54.27349
2023-06-24 20:04:01+00:00,200.0,10.43,199.0,11.7,13.6,47.59359,-54.27349
2023-06-24 20:14:01+00:00,200.0,10.34,201.0,11.57,13.68,47.59359,-54.27349
2023-06-24 20:24:01+00:00,201.0,8.72,202.0,9.95,13.68,47.59359,-54.27349
2023-06-24 20:34:01+00:00,208.0,7.74,202.0,8.86,13.68,47.59359,-54.27349
2023-06-24 20:44:01+00:00,207.0,5.12,207.0,6.52,13.68,47.59359,-54.27349
2023-06-24 20:54:01+00:00,218.0,8.94,216.0,10.19,13.68,47.59359,-54.27349
2023-06-24 21:04:01+00:00,213.0,8.47,211.0,9.76,13.68,47.59359,-54.27349
2023-06-24 21:14:01+00:00,213.0,8.43,215.0,9.4,13.6,47.59359,-54.27349
2023-06-24 21:24:01+00:00,222.0,7.08,217.0,8.2,13.6,47.59359,-54.27349
2023-06-24 21:34:01+00:00,215.0,6.79,214.0,7.81,13.6,47.59359,-54.27349
2023-06-24 21:44:01+00:00,211.0,8.44,211.0,9.23,13.6,47.59359,-54.27349
2023-06-24 21:54:01+00:00,209.0,8.34,208.0,9.6,13.6,47.59359,-54.27349
2023-06-24 22:04:01+00:00,209.0,8.6,206.0,9.89,13.6,47.59359,-54.27349
2023-06-24 22:14:00+00:00,206.0,7.86,207.0,8.55,13.21,47.59359,-54.27349
2023-06-24 22:24:00+00:00,217.0,9.12,227.0,10.21,13.21,47.59359,-54.27349
2023-06-24 22:34:00+00:00,208.0,9.22,209.0,9.79,13.21,47.59359,-54.27349
2023-06-24 22:44:00+00:00,216.0,8.66,216.0,9.59,13.21,47.59359,-54.27349
2023-06-24 22:54:00+00:00,210.0,8.38,207.0,8.97,13.21,47.59359,-54.27349
2023-06-24 23:04:00+00:00,208.0,7.4,211.0,8.43,13.21,47.59359,-54.27349
2023-06-24 23:14:00+00:00,213.0,7.36,212.0,8.09,13.05,47.59359,-54.27349
2023-06-24 23:24:00+00:00,212.0,6.99,207.0,7.9,13.05,47.59359,-54.27349
2023-06-24 23:34:00+00:00,216.0,7.86,216.0,8.83,13.05,47.59359,-54.27349
2023-06-24 23:44:00+00:00,221.0,8.87,227.0,9.93,13.05,47.59359,-54.27349
2023-06-24 23:54:00+00:00,217.0,7.67,217.0,8.29,13.05,47.59359,-54.27349
